Weather in Medvedki

Russia / Kostroma Oblast     58°09′41″N   41°48′50″E
temp.,
°C
wind,
m/s
gust,
m/s
humid.,
%
clouds,
%
prec.,
mm/h
press.,
hPa
HPBL,
m
16 may, sun
sun1600:00+14s411961 0.0 1009355
03:00+12s410960 0.0 1010240
06:00+14s411940 0.0 1010405
09:00+17ssw610760 0.0 1010912
12:00+20sw7115958 0.0 10111747
15:00+20sw610662 0.8 10111547
18:00+18sw4107515 0.9 1011944
21:00+14ssw388921 1.2 1012146
17 may, mon
mon1700:00+13sw399510 0.0 1013199
03:00+11sw36976 0.0 1015116
06:00+13wsw249128 0.0 1016158
09:00+18wsw2272100 0.0 1017556
12:00+21wsw1258100 0.0 10181044
15:00+23se115397 0.0 10171326
18:00+22ene236654 0.0 1017175
21:00+16e348352 0.0 101754
18 may, tue
tue1800:00+14ese39895 0.0 1016157
03:00+14ese41291100 0.6 1016255
06:00+15ese410912 0.0 1016275
09:00+21se58694 0.0 1016497
12:00+25se585141 0.0 1015938
15:00+27sse59495 0.0 10152069
18:00+24se410595 0.0 1014538
21:00+18se413745 0.0 1014265
19 may, wed
wed1900:00+16se413816 0.0 1014286
03:00+16se4128665 0.0 1014251
06:00+17se5137665 0.0 1014322
09:00+23se513606 0.0 1013557
12:00+26se69475 0.0 10131053
15:00+27se510465 0.0 10122495
18:00+25ese511520 0.0 1011562
21:00+20ese514730 0.0 1011454
20 may, thu
thu2000:00+18se5138153 0.3 1011541
03:00+15se411885 0.4 1010316
06:00+16ese412855 0.1 1008393
09:00+19se597676 0.3 1008638
12:00+20sse7117282 0.4 10071398
15:00+19sse710715 1.6 10071301
18:00+17sse6107652 0.9 10061144
21:00+13sse5128637 1.1 1007638